sat.trackr.live / text

‹ back to catalog

STARLINK-34170

NORAD 63955 · 2025-099D

PAYLOAD ACTIVE UNKNOWN

§ Identity

Operator
Country
US
Launch date
2025-05-13
Launch site
AFETR
Launch vehicle
Mass (kg)
RCS (m²)

Purposes: comms

External: N2YO · Heavens-Above · Gunter

§ Orbital elements

Epoch: 2026-09-19T10:30:41.566176Z

Period
94.27 min
Inclination
43.0015°
Eccentricity
0.0002255
Mean motion
15.27592601 rev/d
Perigee alt
481.5 km
Apogee alt
484.6 km
Semi-major
6,861.1 km
B*
4.0637e-4
RAAN
162.3787°
Arg perigee
268.1022°
Mean anomaly
91.9572°
Rev number
7,695

§ Raw data

STARLINK-341701 63955U 25099D   26262.43798109  .00010941  00000+0  40637-3 0  99992 63955  43.0015 162.3787 0002255 268.1022  91.9572 15.27592601 76950

JSON: /api/v1/satellites/63955 · /tle

For live sub-satellite position, see the globe view (requires WebGL).

§ Visibility from observer

Set your observer location to see the next 7 days of passes ≥ 10°. The values pass through the URL so the page stays shareable.

No JS? Fill the form by hand. The geolocation button needs JavaScript.